TimeMST,TemperatureF,Dew PointF,Humidity,Sea Level PressureIn,VisibilityMPH,Wind Direction,Wind SpeedMPH,Gust SpeedMPH,PrecipitationIn,Events,Conditions,WindDirDegrees,DateUTC
12:53 AM,32.0,16.0,52,30.18,10.0,ESE,5.8,-,N/A,,Clear,110,2012-11-16 07:53:00
1:53 AM,30.0,19.0,64,30.17,10.0,ESE,10.4,-,N/A,,Clear,110,2012-11-16 08:53:00
2:53 AM,28.9,21.0,72,30.15,10.0,East,10.4,-,N/A,,Partly Cloudy,90,2012-11-16 09:53:00
3:53 AM,28.0,21.9,78,30.14,10.0,East,11.5,-,N/A,,Scattered Clouds,90,2012-11-16 10:53:00
5:53 AM,27.0,23.0,85,30.13,10.0,East,10.4,-,N/A,,Mostly Cloudy,100,2012-11-16 12:53:00
6:53 AM,27.0,23.0,85,30.15,10.0,East,10.4,-,N/A,,Partly Cloudy,90,2012-11-16 13:53:00
7:53 AM,28.0,24.1,85,30.16,10.0,East,12.7,-,N/A,,Scattered Clouds,90,2012-11-16 14:53:00
8:53 AM,30.0,24.1,79,30.18,10.0,East,3.5,-,N/A,,Mostly Cloudy,100,2012-11-16 15:53:00
9:53 AM,30.9,25.0,79,30.16,10.0,East,9.2,-,N/A,,Overcast,90,2012-11-16 16:53:00
10:53 AM,37.0,25.0,62,30.13,10.0,Calm,Calm,-,N/A,,Mostly Cloudy,0,2012-11-16 17:53:00
11:53 AM,39.9,21.9,49,30.09,10.0,Calm,Calm,-,N/A,,Overcast,0,2012-11-16 18:53:00
12:53 PM,43.0,21.9,43,30.04,10.0,SW,6.9,-,N/A,,Mostly Cloudy,220,2012-11-16 19:53:00
1:53 PM,44.1,21.9,42,30.05,10.0,SSW,11.5,-,N/A,,Mostly Cloudy,210,2012-11-16 20:53:00
2:53 PM,42.1,23.0,47,30.06,10.0,SW,16.1,-,N/A,,Overcast,220,2012-11-16 21:53:00
3:53 PM,39.9,25.0,55,30.09,10.0,SSW,15.0,-,N/A,,Overcast,210,2012-11-16 22:53:00
4:53 PM,36.0,27.0,70,30.11,10.0,SW,11.5,-,N/A,,Mostly Cloudy,230,2012-11-16 23:53:00
5:53 PM,34.0,28.0,79,30.13,10.0,SW,9.2,-,N/A,,Mostly Cloudy,230,2012-11-17 00:53:00
6:53 PM,33.1,28.0,82,30.15,10.0,SSW,8.1,-,N/A,,Overcast,210,2012-11-17 01:53:00
7:53 PM,34.0,28.0,79,30.13,10.0,SW,8.1,-,N/A,,Mostly Cloudy,220,2012-11-17 02:53:00
8:53 PM,32.0,28.0,85,30.14,10.0,WSW,8.1,-,N/A,,Partly Cloudy,240,2012-11-17 03:53:00
9:53 PM,34.0,28.9,82,30.13,10.0,SW,10.4,-,N/A,,Mostly Cloudy,230,2012-11-17 04:53:00
10:53 PM,35.1,28.9,78,30.10,10.0,SW,8.1,-,N/A,,Overcast,230,2012-11-17 05:53:00
11:53 PM,34.0,30.0,85,30.10,9.0,SSW,5.8,-,0.00,,Overcast,210,2012-11-17 06:53:00